sat.trackr.live / text

‹ back to catalog

ONEWEB-0624

NORAD 55165 · 2023-004AB

PAYLOAD ACTIVE UNKNOWN

§ Identity

Operator
Country
UK
Launch date
2023-01-10
Launch site
AFETR
Launch vehicle
Mass (kg)
RCS (m²)

Purposes: comms

External: N2YO · Heavens-Above · Gunter

§ Orbital elements

Epoch: 2026-05-25T02:29:07.704960Z

Period
109.68 min
Inclination
87.8956°
Eccentricity
0.0001882
Mean motion
13.12927641 rev/d
Perigee alt
1,210.4 km
Apogee alt
1,213.3 km
Semi-major
7,590.0 km
B*
9.6105e-4
RAAN
355.1802°
Arg perigee
88.1588°
Mean anomaly
271.9756°
Rev number
16,504

§ Raw data

ONEWEB-06241 55165U 23004AB  26145.10356140  .00000361  00000+0  96105-3 0  99922 55165  87.8956 355.1802 0001882  88.1588 271.9756 13.12927641165047

JSON: /api/v1/satellites/55165 · /tle

For live sub-satellite position, see the globe view (requires WebGL).

§ Visibility from observer

Set your observer location to see the next 7 days of passes ≥ 10°. The values pass through the URL so the page stays shareable.

No JS? Fill the form by hand. The geolocation button needs JavaScript.